Wind_Speed
13 8 7 8 10 12 12 9 2 4 0 5 4 4 2 1 2 4 6 12 13 8 7 9 5 7 10 11 12 15 16 15 14 16 16 17 17 17 18 18 18 18 18 17 17 18 17 16 15 14 14 14 13 13 12 12 12 12 12 12 13 13 13 12 12 12 11 10 10 9 8 8 8 8 8 8 7 7 7 9 10 10 9 9 8 8
11 8 9 11 10 11 9 5 2 2 3 6 5 5 5 1 2 3 2 9 11 6 6 10 8 8 11 10 13 15 15 15 17 17 17 18 18 17 17 17 18 17 18 18 18 18 17 16 16 15 14 15 14 14 13 13 12 12 12 12 13 14 14 13 12 12 12 10 9 9 8 7 7 8 7 7 7 7 7 9 10 9 9 8 8 8
9 8 12 12 6 6 6 5 4 2 4 6 5 4 6 5 2 0 2 5 5 3 4 9 9 7 9 9 12 16 15 16 17 17 17 19 18 18 18 17 18 18 18 19 19 18 18 17 17 16 15 15 15 14 13 13 13 13 13 13 13 14 14 14 13 12 12 11 10 9 8 8 7 7 7 7 8 8 6 7 8 8 9 8 8 8
8 9 12 12 7 7 7 6 5 3 3 5 4 3 3 7 4 1 3 3 2 1 2 7 7 5 8 8 10 14 16 15 14 14 15 18 18 18 18 18 19 19 19 19 19 19 19 18 18 17 16 15 15 14 14 14 14 14 14 14 14 14 15 14 13 12 11 11 11 11 10 10 8 8 8 8 8 8 7 7 7 7 8 8 8 8
7 5 10 12 9 9 9 7 7 5 4 3 4 4 4 9 5 2 4 7 4 3 4 6 5 5 8 10 9 10 13 13 13 13 13 16 17 16 17 17 18 20 19 20 20 20 19 19 19 18 17 16 15 15 15 15 14 14 14 14 14 14 15 15 13 12 11 11 11 11 11 11 9 9 8 8 7 7 7 6 6 6 7 8 8 7
5 5 9 12 11 11 9 8 8 6 4 3 2 3 4 8 6 1 5 8 5 5 8 8 5 4 9 11 10 9 10 12 14 16 14 15 17 17 17 18 19 19 19 20 20 20 20 20 19 19 18 17 16 16 15 15 15 14 14 14 14 14 14 15 13 12 11 12 11 11 10 10 9 8 7 7 6 6 7 6 6 6 6 7 7 6
4 7 10 11 12 12 9 8 8 5 4 3 1 1 4 7 7 5 6 7 4 2 7 11 6 1 6 10 11 11 12 13 14 18 19 18 17 18 19 19 20 19 19 20 19 20 20 20 20 19 19 18 16 16 15 15 15 14 15 15 15 14 14 14 14 13 12 12 12 11 9 7 7 7 6 7 7 6 7 7 7 6 6 7 7 6
5 8 11 12 12 11 9 7 8 7 5 3 2 2 5 6 8 8 7 7 3 2 5 10 8 3 2 7 12 14 13 14 15 16 20 21 20 20 20 20 20 20 20 20 20 20 20 21 21 20 19 18 17 16 15 15 15 15 16 15 15 15 14 14 14 13 13 12 13 12 9 7 6 5 5 7 7 7 7 7 6 6 5 6 7 7
7 8 10 13 12 9 9 6 9 8 4 3 1 3 4 5 8 8 7 6 3 2 4 7 7 5 1 6 10 12 13 14 16 16 18 22 23 22 21 20 21 21 20 20 20 20 20 21 21 20 19 18 17 16 16 16 16 16 16 15 15 15 14 14 13 13 13 12 13 12 10 9 8 6 5 6 6 7 7 7 7 6 5 5 5 6
7 7 7 12 10 9 9 6 9 8 2 2 2 3 2 3 5 6 6 4 3 6 5 8 9 6 2 6 7 9 11 12 14 14 18 23 24 24 22 21 22 21 21 20 20 20 20 20 20 20 19 18 17 16 16 16 16 17 18 17 16 16 15 14 13 13 13 13 12 13 12 11 9 8 7 7 7 7 7 7 6 6 6 5 4 4
6 4 4 8 7 6 8 8 9 9 6 5 5 4 3 2 2 3 3 2 4 6 3 7 11 7 2 5 6 7 8 10 12 12 16 22 23 24 22 22 23 22 22 21 20 20 20 20 20 19 19 18 17 16 15 16 16 17 18 18 18 17 16 15 14 13 13 13 13 13 14 13 11 10 9 8 8 8 7 6 6 5 5 5 5 4
8 6 5 7 5 4 6 8 8 8 9 8 5 5 3 2 1 4 3 3 7 5 2 5 9 8 5 3 5 7 6 8 11 12 16 21 23 24 23 23 23 23 22 22 21 21 21 21 20 20 19 18 17 17 16 16 16 16 18 19 19 18 17 16 15 14 13 13 13 13 14 14 12 11 10 9 8 8 7 6 5 5 5 5 5 5
8 8 7 8 8 8 8 7 7 8 9 10 7 6 4 0 3 6 5 5 6 3 3 3 6 6 4 1 4 8 8 7 9 12 17 24 26 27 25 23 22 22 23 23 22 22 22 22 21 20 19 19 18 18 17 17 16 16 17 20 21 20 18 16 15 15 14 14 14 14 14 14 14 12 11 10 8 8 7 6 6 5 5 4 4 4
7 9 10 9 8 12 12 7 8 8 9 11 9 8 7 4 4 7 6 6 6 4 4 4 4 4 3 2 3 6 8 8 8 10 17 24 28 30 29 25 22 22 22 24 24 23 22 22 21 21 20 19 19 19 18 17 17 16 17 19 21 21 19 17 16 15 14 14 14 14 14 14 14 13 12 11 8 7 7 7 6 5 5 4 4 3
7 8 11 12 9 12 14 10 7 8 9 11 9 9 9 7 6 7 5 5 6 5 5 6 4 4 2 4 4 4 6 7 8 8 14 21 25 30 33 27 22 22 21 22 23 23 23 22 22 21 20 19 19 19 18 18 18 18 18 18 19 19 19 18 18 16 15 15 15 15 15 14 14 14 13 12 10 9 8 7 6 6 6 5 4 5
7 4 7 14 12 13 15 13 9 8 8 9 9 9 9 9 8 6 5 6 6 5 5 6 4 1 2 5 6 5 6 7 9 10 13 18 21 27 30 27 23 22 21 21 22 23 23 23 22 21 20 20 20 19 18 19 20 21 21 20 18 18 18 18 18 17 16 15 15 16 16 15 15 15 14 13 13 12 9 8 7 7 7 6 6 6
6 3 8 12 12 12 16 15 12 9 6 7 9 10 9 8 8 7 7 7 8 7 4 5 6 3 4 6 6 6 6 7 9 12 14 16 20 24 27 28 26 22 21 21 21 22 24 23 22 22 21 20 20 19 19 20 21 22 22 21 20 19 18 17 18 18 17 16 15 16 16 16 15 15 14 12 12 11 9 9 9 7 7 7 7 6
4 4 8 11 12 13 16 16 16 15 10 5 8 10 8 5 6 6 6 7 8 8 4 6 8 6 5 4 3 5 7 8 9 12 14 15 19 23 24 28 30 25 21 20 19 21 23 22 22 21 20 20 19 18 19 20 21 22 22 21 21 20 19 18 18 17 17 16 15 15 16 16 15 14 13 12 12 11 10 10 9 8 8 7 7 7
3 5 7 10 11 13 14 13 13 17 16 9 5 8 10 7 7 7 6 7 8 8 6 7 8 8 6 3 5 6 7 8 10 11 13 15 18 22 23 24 26 24 21 20 20 20 21 21 21 21 20 20 20 19 19 21 21 23 23 22 22 21 20 18 17 17 18 17 16 15 16 16 16 15 14 13 12 12 11 10 9 9 9 7 7 8
3 6 4 7 9 11 11 10 10 12 15 11 8 7 9 7 8 8 7 7 7 7 7 8 8 7 4 2 5 7 7 9 11 11 11 14 17 21 23 23 23 22 21 20 20 21 21 21 20 19 20 22 22 20 20 21 22 22 23 23 22 21 21 19 18 18 18 17 16 16 16 16 15 15 14 14 14 13 11 10 9 9 9 8 8 8
3 5 3 5 8 9 9 10 11 11 12 11 8 8 9 7 7 7 8 8 7 7 6 7 8 4 2 4 4 7 7 7 10 9 9 12 16 18 21 23 23 23 22 20 18 18 19 20 18 18 21 23 22 21 21 23 23 22 22 23 22 21 21 20 19 19 18 17 16 16 16 16 14 14 14 14 14 14 12 11 10 10 9 9 9 8
2 4 5 4 7 9 10 12 12 10 12 13 10 9 10 9 8 7 8 8 7 7 6 6 7 2 4 3 2 6 6 6 9 10 8 11 14 16 18 21 23 24 23 22 20 17 16 18 17 15 18 21 20 21 24 24 23 22 23 23 21 21 21 21 20 20 18 17 17 16 15 15 14 14 14 13 14 14 13 12 11 11 10 9 9 9
3 4 6 6 6 4 5 9 7 6 9 14 11 10 10 9 9 8 8 8 7 8 7 6 7 1 5 1 1 4 4 5 9 10 9 10 13 15 17 19 22 24 24 23 22 18 17 19 19 16 15 15 16 19 22 22 21 21 22 22 21 20 20 21 21 20 19 18 17 16 15 15 15 15 14 13 13 13 13 13 12 12 12 11 10 10
2 4 5 6 5 1 4 6 6 5 8 12 12 11 10 10 11 10 9 7 7 9 8 6 8 3 5 2 2 4 4 4 7 10 10 10 11 13 16 18 19 22 24 23 21 19 19 21 22 21 17 14 15 17 18 18 19 19 20 20 20 19 20 21 21 21 20 19 18 17 16 15 15 15 14 14 14 14 13 13 12 12 12 12 11 10
3 2 4 6 7 7 6 7 9 9 9 9 9 9 7 8 11 10 8 5 6 10 11 9 8 3 5 4 5 7 6 5 7 8 8 9 10 12 15 17 17 18 21 22 21 21 23 23 23 24 23 20 18 17 14 13 14 16 18 19 18 18 19 20 21 21 21 20 20 19 18 16 15 15 15 15 15 15 14 13 13 13 13 12 12 12
3 2 2 6 8 8 7 6 6 8 10 8 5 5 6 9 10 8 6 5 6 8 10 10 6 4 7 6 7 8 8 7 9 9 8 8 9 11 13 16 16 15 16 18 18 19 21 22 21 22 22 22 22 20 18 16 15 16 17 17 17 17 18 18 19 20 21 21 20 19 18 17 16 16 16 16 16 16 16 15 14 13 13 13 13 13
3 1 2 1 0 1 2 2 1 3 8 8 6 6 8 9 10 8 8 8 7 7 8 10 8 3 7 10 9 10 10 8 9 11 10 8 9 10 10 12 14 14 15 16 15 15 16 17 19 19 20 21 22 21 22 23 22 20 18 18 19 20 20 19 18 19 21 21 21 21 20 19 18 17 18 19 18 18 18 17 16 14 13 13 13 14
3 0 2 4 6 6 5 5 3 3 6 6 7 7 7 8 9 11 10 6 5 7 7 8 10 9 7 11 11 10 10 8 8 10 11 10 10 11 10 10 12 13 14 14 13 13 14 15 17 19 20 21 21 21 22 23 23 23 22 22 22 22 23 22 20 21 22 22 23 24 24 23 22 21 21 21 20 19 19 19 18 17 16 15 14 14
2 1 1 3 7 8 7 6 6 7 7 6 6 5 5 7 8 11 8 2 2 5 3 1 6 6 5 11 11 9 10 9 8 9 10 10 10 11 11 12 12 13 13 14 14 13 13 15 17 17 17 18 19 20 21 22 23 23 23 24 24 23 22 23 23 24 25 26 26 27 26 25 24 24 23 22 21 21 20 20 20 20 19 18 16 14
1 2 1 1 7 9 7 6 6 8 10 9 9 8 5 5 4 3 1 5 3 1 2 3 5 6 6 8 10 10 10 11 10 9 8 9 9 10 12 12 12 13 13 14 15 14 11 13 15 14 14 15 15 15 17 19 20 21 21 21 21 20 19 20 20 22 24 26 26 27 27 26 26 26 25 24 24 23 23 23 22 21 21 20 18 16
3 2 1 2 4 8 7 6 6 8 11 13 12 11 8 6 6 6 6 7 4 3 4 4 8 9 6 8 11 11 11 11 11 9 8 8 9 10 11 11 12 12 11 11 13 11 9 8 9 9 10 10 9 12 16 17 17 18 19 20 20 19 19 19 19 21 23 24 25 26 26 27 27 28 27 26 26 25 25 25 24 23 23 22 21 19
4 3 1 4 3 6 6 3 5 7 9 13 14 13 11 8 7 8 9 8 7 5 2 4 5 5 5 9 11 10 10 10 10 10 10 9 9 9 10 11 12 12 10 9 9 10 9 7 6 6 5 6 7 10 12 12 12 14 17 19 19 19 19 20 20 21 21 22 22 22 24 25 26 27 26 26 27 26 26 25 25 24 23 23 22 20
3 3 2 3 3 5 4 3 1 6 7 7 10 10 9 8 8 9 9 10 10 8 4 1 2 4 8 9 9 9 10 10 10 11 11 10 9 10 9 10 13 13 12 11 10 9 9 8 7 6 6 6 8 9 9 9 10 10 13 15 16 17 18 19 20 20 19 19 19 19 19 21 22 22 23 24 24 24 25 25 25 25 23 23 23 21
3 4 2 1 3 3 1 6 6 5 6 4 5 6 7 7 9 10 11 12 10 8 4 3 3 5 8 8 8 10 10 10 10 10 11 11 10 10 10 10 11 13 12 11 9 7 7 7 7 7 7 6 5 7 8 8 8 9 11 13 14 16 17 17 18 18 19 19 19 18 18 18 18 17 19 21 22 22 22 23 25 25 22 22 22 21
4 5 3 1 3 1 3 5 4 4 5 5 4 6 6 4 6 10 13 14 11 9 8 6 5 6 7 7 10 11 9 10 11 9 9 10 9 10 10 9 10 11 11 10 9 8 7 7 7 6 5 5 6 7 7 7 8 9 11 12 13 14 15 16 18 18 18 18 18 18 18 17 17 18 20 22 21 20 20 20 23 24 23 22 20 19
3 5 3 2 1 1 1 2 2 3 4 4 4 7 6 2 2 5 10 14 12 9 9 8 6 6 6 11 14 12 11 13 12 10 9 9 8 8 8 8 9 11 10 10 9 9 8 7 6 5 4 5 6 6 7 7 9 12 13 14 13 13 14 15 16 16 17 16 16 15 14 14 15 16 18 18 18 19 19 20 22 22 22 20 19 18
3 3 4 3 1 2 3 1 1 2 4 4 3 6 6 4 5 4 5 10 11 9 8 7 6 6 6 11 13 12 13 13 11 9 9 8 8 8 8 8 9 10 10 10 9 9 9 8 6 4 5 7 8 7 6 5 7 10 13 14 13 14 14 14 13 13 13 13 11 9 8 8 9 10 11 13 16 18 20 22 22 21 19 18 18 19
2 3 3 4 2 2 4 4 2 4 4 3 4 5 5 4 6 6 1 6 9 9 7 5 4 5 6 8 11 11 11 9 6 6 8 9 9 9 10 10 10 10 11 10 10 10 9 8 6 4 4 8 11 11 10 8 6 8 11 12 12 12 12 14 14 13 12 12 11 10 7 6 6 6 7 11 14 15 17 20 22 21 20 18 17 16
2 2 3 4 4 4 5 6 5 4 1 4 5 6 7 4 3 5 2 3 8 9 5 4 3 4 5 7 10 10 7 5 5 7 9 11 12 11 12 12 11 11 11 10 10 11 11 10 9 8 9 11 13 13 11 9 8 8 10 11 10 9 9 10 12 11 10 10 11 11 10 8 7 7 8 9 9 9 9 11 14 16 17 16 14 13
2 3 4 5 5 5 6 5 3 2 3 6 6 8 8 4 1 5 4 2 7 9 5 3 3 3 3 5 8 6 2 0 5 10 11 11 12 12 12 13 13 11 11 10 10 12 13 12 12 12 13 14 14 12 11 9 8 8 10 11 10 9 8 9 10 10 9 10 10 9 8 7 6 7 7 7 6 4 4 4 5 8 11 10 8 8
1 1 2 3 4 5 6 5 3 3 4 5 7 8 7 2 3 3 0 2 6 8 5 2 2 3 3 4 5 2 3 4 9 13 13 12 11 11 10 12 12 13 12 12 13 13 12 12 12 12 13 14 13 11 9 7 7 8 10 11 10 10 10 10 11 11 11 11 10 9 8 6 6 7 7 6 5 5 4 5 5 5 7 7 5 5
1 1 1 2 1 2 4 4 3 4 4 7 9 5 4 3 2 2 3 2 5 6 4 3 1 2 3 5 4 3 6 10 12 14 13 12 11 11 10 11 12 12 13 13 14 14 11 10 10 11 11 12 11 8 6 5 5 7 8 7 8 9 9 9 10 10 9 8 6 7 8 6 5 7 6 5 5 6 5 5 5 4 5 5 4 5
2 1 2 1 1 1 4 3 2 3 5 11 10 3 3 4 3 3 3 3 4 4 2 2 2 1 3 5 6 6 10 13 13 13 12 10 9 9 10 11 11 11 12 13 14 14 12 11 10 10 10 9 7 6 5 4 4 6 6 7 8 9 8 8 8 8 6 4 3 3 4 4 4 3 3 3 2 3 4 5 5 4 5 6 6 6
3 2 1 3 2 2 2 3 2 3 6 11 9 5 6 7 5 4 4 6 7 6 2 1 1 0 1 4 6 8 12 13 13 14 14 11 10 9 10 10 11 11 12 12 13 13 12 10 10 9 8 7 5 4 3 3 4 5 5 6 8 8 8 8 7 7 6 4 2 1 2 3 3 1 1 1 1 1 1 2 3 4 5 5 6 6
3 3 3 3 3 3 3 5 5 5 5 7 8 8 7 6 6 6 6 7 8 8 6 4 2 1 1 2 5 8 9 10 11 14 15 14 13 11 10 11 11 12 13 13 13 13 12 10 8 6 4 3 2 1 1 3 4 4 4 5 7 7 7 7 7 6 5 4 3 3 2 2 2 2 2 2 3 3 2 2 2 1 2 4 5 5
3 1 3 2 3 4 5 5 6 6 6 6 6 6 6 6 6 7 7 8 9 9 7 5 3 2 0 1 3 5 7 9 12 13 14 14 15 14 13 13 13 13 14 13 12 11 11 9 7 4 3 2 1 0 1 3 4 3 4 5 5 6 6 6 5 5 4 4 3 3 2 1 1 0 1 1 2 3 4 4 4 4 3 4 4 5
4 3 2 0 3 3 3 6 6 6 6 5 4 5 6 6 6 6 7 8 8 8 7 6 4 2 0 1 2 3 4 8 11 13 14 16 17 16 16 15 15 15 14 13 13 11 11 9 6 3 1 1 1 1 2 3 3 4 4 5 5 5 5 5 4 4 3 3 3 2 1 1 1 1 1 1 1 2 3 4 4 4 4 4 4 5
4 4 3 1 2 2 4 7 6 5 5 5 4 4 5 5 5 6 7 7 8 8 7 7 5 3 1 0 2 3 5 8 10 13 17 19 17 15 16 17 17 16 15 15 15 13 11 9 5 2 1 1 1 2 2 2 2 3 3 4 3 3 4 4 3 3 3 4 3 2 2 2 2 1 2 3 3 4 5 5 4 4 6 7 6 6
4 4 2 1 2 2 4 6 6 4 6 6 5 5 6 5 5 6 6 6 7 7 7 6 5 3 2 1 1 3 5 8 9 13 17 18 15 14 17 18 19 18 17 16 15 13 10 8 5 2 0 1 2 2 2 2 3 3 3 2 2 3 4 4 3 3 3 2 1 1 1 2 2 2 2 3 4 5 7 7 7 8 9 10 9 8
4 3 2 2 4 2 3 6 6 2 2 6 7 6 6 5 5 5 6 6 6 7 7 6 5 3 2 1 3 4 5 7 9 12 16 17 15 16 17 18 19 20 19 18 16 14 12 10 7 3 1 1 2 3 3 3 3 3 2 3 4 5 5 5 4 4 3 1 0 2 2 1 3 4 3 2 3 5 6 7 7 9 10 10 9 10
4 2 2 2 2 2 5 6 5 2 1 5 7 5 5 5 4 4 5 5 5 5 5 5 5 4 3 1 2 4 5 6 8 11 13 15 16 18 19 20 20 21 21 20 19 17 15 12 9 6 3 1 2 3 2 2 2 2 2 4 6 6 6 5 4 3 3 2 3 4 3 3 4 5 4 4 4 4 4 5 6 8 9 9 9 10
Wind_Direction
188 191 197 202 200 197 204 216 254 340 219 153 169 164 117 14 83 94 119 144 156 164 175 189 189 163 163 168 170 171 179 186 182 179 181 179 177 178 180 178 178 181 179 177 177 176 175 175 174 173 172 173 172 175 179 176 175 175 174 180 184 183 181 176 171 167 161 160 158 154 155 153 154 156 149 145 142 142 153 155 147 145 149 148 147 145
194 207 200 201 204 195 195 208 234 280 194 165 190 170 130 119 344 10 73 132 150 170 164 176 195 179 165 164 169 175 182 190 189 184 185 184 181 180 181 181 178 179 178 176 176 176 176 175 175 173 173 175 176 178 179 179 181 180 178 183 187 189 187 179 177 174 167 164 158 153 152 149 154 152 141 143 145 144 159 159 150 153 156 154 152 148
197 217 200 190 188 171 167 185 211 241 188 175 186 171 149 166 205 3 87 109 151 192 161 179 197 172 155 164 171 179 189 195 193 190 190 187 183 182 182 181 179 179 178 176 176 177 177 176 176 175 176 179 179 180 180 181 184 184 182 187 191 193 192 185 181 176 169 164 158 154 152 145 146 149 148 156 155 146 152 160 158 160 159 157 156 152
195 214 192 172 165 176 172 179 198 204 203 190 162 172 180 167 176 182 148 142 171 210 177 197 204 155 151 172 177 186 192 195 199 201 199 193 189 187 184 182 180 180 179 178 178 178 177 177 177 178 179 180 182 182 183 184 185 187 189 193 195 196 194 191 184 175 172 169 163 160 158 154 151 157 160 161 158 152 152 158 163 164 161 158 158 157
199 192 167 164 176 193 185 176 194 202 201 204 156 164 191 171 167 334 160 155 167 213 215 207 211 175 171 181 179 185 191 192 200 211 211 198 193 191 188 186 183 181 180 180 181 180 179 179 179 180 181 181 184 185 186 186 185 188 192 195 197 199 197 195 189 178 176 175 170 165 163 161 158 158 160 154 157 161 154 153 164 169 169 167 163 161
197 137 156 172 181 195 200 185 191 209 197 191 177 145 150 155 148 172 178 163 179 214 200 201 223 187 175 185 179 172 187 193 193 202 210 200 194 194 191 188 185 184 183 182 183 182 181 180 180 182 183 183 187 188 187 187 187 188 192 195 197 200 199 198 193 184 181 178 175 172 166 166 163 160 158 153 156 163 155 155 170 173 174 175 170 165
153 148 182 185 181 192 210 199 177 198 210 162 144 129 127 128 133 166 197 197 203 181 173 195 224 188 166 185 179 169 185 195 191 197 203 199 195 196 195 191 186 185 185 185 185 185 184 183 182 184 186 187 188 190 188 188 188 187 192 196 197 199 200 200 196 190 186 183 182 179 173 176 172 164 165 161 157 161 159 162 168 169 175 178 173 175
132 157 187 186 186 192 207 203 163 179 217 123 78 230 178 146 146 169 201 221 230 76 153 195 222 259 200 168 168 173 185 193 195 199 199 198 198 198 198 193 188 188 187 186 187 188 187 185 185 186 188 189 189 190 189 189 190 189 193 198 197 197 198 198 197 192 190 188 186 184 181 186 180 170 173 166 161 164 163 164 163 162 175 182 178 183
157 173 180 184 191 195 206 195 149 170 209 59 49 234 199 175 173 183 208 227 236 228 197 192 209 244 197 131 152 174 190 197 197 199 197 197 198 198 199 196 191 191 189 188 189 189 188 187 187 189 189 190 190 190 190 190 189 191 195 198 197 196 195 196 195 193 194 193 191 188 188 193 185 173 172 166 166 169 164 164 166 163 167 179 188 189
168 186 175 186 194 197 204 169 141 171 180 77 180 186 158 184 185 201 223 230 232 243 231 180 191 230 171 136 159 181 199 207 199 197 196 195 196 197 199 197 193 191 190 190 190 189 189 188 189 189 189 189 189 190 191 190 189 192 195 198 198 195 193 194 193 193 196 195 196 195 194 197 192 183 177 172 173 170 165 163 165 168 162 164 186 195
134 158 174 197 202 197 191 157 153 177 165 154 167 138 123 139 173 230 234 246 237 233 219 169 186 226 218 156 173 186 204 210 200 194 192 193 196 198 199 197 192 190 189 190 190 190 189 189 190 190 189 189 189 189 189 189 190 192 195 198 198 195 193 193 191 193 196 197 199 201 199 196 193 191 186 181 179 173 166 162 163 173 169 164 174 187
147 169 177 195 210 191 170 159 167 176 170 180 171 138 134 64 276 230 195 222 239 216 147 157 185 215 233 165 157 175 190 201 199 193 187 189 193 196 199 198 193 190 189 188 190 190 189 191 192 191 191 191 190 190 189 190 191 192 196 200 198 194 191 190 191 192 195 197 199 201 202 199 194 193 191 188 188 181 173 168 172 180 178 175 173 174
181 192 169 173 196 201 190 169 170 178 184 197 190 162 167 2 255 231 201 215 234 191 125 161 190 210 236 218 150 171 181 192 197 193 187 187 189 191 195 196 192 190 190 189 191 192 191 193 194 195 195 193 192 193 192 192 193 193 197 202 200 196 191 190 192 193 195 198 201 200 201 201 199 196 194 194 194 191 186 180 181 182 181 176 164 160
188 196 183 180 187 199 210 192 169 183 194 201 195 175 175 183 224 232 221 222 232 197 148 148 185 218 219 186 159 172 183 193 199 194 187 185 186 188 191 193 192 191 191 191 192 194 193 194 196 198 198 196 197 198 198 197 196 196 200 202 203 201 198 196 195 196 197 200 202 202 201 201 202 200 197 197 197 199 197 190 186 185 188 185 174 172
202 198 188 192 183 185 207 219 192 180 192 206 203 188 184 179 204 231 230 224 229 210 172 155 187 228 184 143 135 152 174 190 199 191 179 181 184 186 188 192 194 193 191 191 192 194 195 196 198 199 199 200 201 202 202 201 200 203 205 204 204 205 204 203 201 200 200 202 204 204 203 202 203 203 202 200 199 200 199 197 198 194 189 190 194 197
231 227 162 186 191 180 196 219 220 193 189 204 207 205 202 192 198 228 247 243 245 232 185 177 218 262 122 146 149 156 171 179 190 184 169 174 179 179 183 189 193 193 191 191 192 193 195 197 200 201 201 203 205 206 204 204 209 215 216 211 206 207 208 206 205 205 204 206 207 206 205 204 206 207 205 207 206 202 201 203 206 203 195 195 200 203
234 222 139 178 199 191 197 207 212 216 204 186 204 215 214 212 218 226 228 233 250 254 207 200 235 218 161 172 166 179 186 170 182 185 171 170 174 174 178 186 190 192 191 191 192 192 193 197 201 202 203 205 207 207 207 213 220 224 223 218 213 212 212 210 209 209 210 212 212 211 209 208 210 211 210 213 216 212 216 216 209 205 204 203 207 208
256 230 156 175 199 197 205 207 202 219 229 191 198 208 201 225 250 242 229 217 227 240 215 205 232 228 205 189 160 192 191 166 175 181 168 166 175 177 179 185 188 189 191 193 194 193 194 196 201 203 205 208 207 207 215 226 231 230 227 223 220 217 216 215 214 214 215 216 216 216 214 212 212 214 214 217 220 218 221 223 213 207 208 208 211 212
266 256 167 174 196 187 197 210 201 209 221 228 236 213 197 209 221 216 230 227 219 230 223 209 223 233 231 194 158 185 177 156 165 172 166 166 175 181 179 181 185 186 189 194 195 194 193 195 201 204 206 212 215 213 221 232 234 234 233 229 226 224 222 220 216 216 219 218 218 218 219 218 216 216 216 216 218 217 217 219 216 212 213 212 214 220
241 258 177 165 183 173 181 207 205 194 205 228 255 225 202 217 224 212 221 232 233 236 228 215 216 222 232 120 139 164 156 151 161 165 169 170 172 178 178 176 177 179 185 192 194 194 194 197 203 206 210 220 227 225 226 233 235 234 235 233 230 228 226 223 217 217 221 219 216 218 220 222 221 220 220 218 218 217 216 219 218 216 218 217 217 226
230 248 218 149 153 172 184 201 208 194 188 204 225 212 200 217 233 225 222 228 239 241 231 230 227 201 65 43 104 135 138 148 159 162 169 171 170 173 174 174 174 175 180 184 188 191 194 199 201 204 213 222 229 229 229 234 235 232 234 235 232 229 228 225 220 220 223 220 217 219 222 223 224 225 225 224 225 223 220 222 221 219 220 221 220 222
272 249 245 188 165 194 199 194 209 215 196 194 206 212 206 210 219 222 222 219 227 238 237 247 245 166 67 21 87 119 136 148 157 162 166 169 170 170 171 173 175 178 182 182 182 182 183 190 192 197 212 219 222 228 232 236 236 235 236 237 235 232 229 226 224 223 223 222 221 222 224 225 225 227 225 223 227 227 224 224 224 224 223 224 228 226
322 270 254 232 205 202 162 173 213 258 214 199 206 215 209 208 214 219 221 212 214 230 233 249 252 145 83 50 81 104 136 150 156 163 164 164 168 172 172 171 175 184 193 195 193 193 196 200 197 194 204 211 214 225 234 236 236 238 240 242 241 238 233 228 226 226 224 223 224 224 225 225 226 228 225 219 221 224 224 224 224 228 229 227 230 229
313 254 243 241 230 194 98 152 207 247 221 206 210 217 217 216 215 223 236 225 216 223 219 233 242 182 102 119 136 114 126 147 158 160 158 157 161 171 174 171 173 183 194 199 198 201 210 211 207 205 211 214 212 220 230 231 232 236 239 241 241 238 237 235 231 230 228 227 228 229 228 228 227 228 224 218 218 218 221 224 223 228 231 229 229 229
314 265 234 228 210 189 172 177 191 202 213 218 212 209 229 238 224 228 243 235 228 225 214 226 241 182 112 136 149 140 145 149 148 147 146 150 156 167 171 170 174 181 190 199 202 204 209 212 216 220 225 227 221 218 220 223 228 234 236 239 241 240 241 240 237 235 234 232 231 229 228 227 227 228 225 220 219 217 219 224 225 228 231 232 230 227
303 341 280 237 216 199 186 179 185 191 200 211 207 197 224 239 231 231 235 223 227 225 212 225 241 127 125 157 154 151 163 154 138 134 130 137 153 165 168 167 172 176 182 194 203 205 205 210 217 220 221 224 224 223 225 229 234 236 237 241 245 244 242 241 237 235 234 233 233 231 227 224 223 226 227 224 221 218 217 221 224 229 231 233 232 227
286 24 15 341 194 183 136 79 22 187 185 187 187 192 208 222 230 235 232 227 226 222 220 228 233 180 151 164 163 162 168 158 143 139 135 136 147 156 160 164 172 176 177 183 192 197 200 208 216 218 220 224 228 232 235 237 237 237 238 240 242 243 243 241 237 233 230 229 231 234 234 231 227 226 226 226 223 220 219 219 221 224 229 230 229 226
288 17 32 63 77 78 80 73 74 142 166 173 176 184 193 200 217 228 233 252 248 231 229 217 220 225 178 156 163 167 160 154 147 142 141 142 143 146 143 141 149 156 160 165 170 180 195 211 221 225 227 229 231 232 233 234 234 234 236 237 239 244 246 242 238 236 232 229 229 232 233 234 233 230 228 227 226 224 224 223 222 223 224 226 226 225
295 279 323 89 97 91 90 91 95 115 122 119 126 141 170 181 205 224 231 339 333 244 264 200 204 220 157 143 153 156 152 153 148 137 139 141 143 147 144 136 137 139 139 149 163 176 194 210 218 220 221 224 226 227 229 233 235 235 238 238 239 242 243 240 236 235 234 233 232 234 236 238 237 233 232 232 232 231 229 227 228 228 229 230 229 227
226 221 275 128 115 100 96 108 109 109 106 93 82 80 105 131 137 195 161 32 18 275 10 64 117 89 90 126 134 144 155 154 142 131 133 141 143 146 146 147 149 144 142 158 178 186 191 202 211 213 214 217 220 223 226 230 231 230 231 234 233 234 237 238 236 235 236 236 235 237 240 241 237 234 233 233 234 234 231 229 229 229 230 231 230 229
225 213 306 282 153 115 106 123 127 116 102 85 67 57 66 86 80 65 45 23 13 38 56 112 113 87 82 106 117 140 151 141 138 137 132 136 142 142 144 146 141 134 138 165 184 181 172 185 200 203 207 210 214 223 227 227 226 224 224 224 223 224 229 233 234 236 239 240 239 240 240 238 236 235 235 234 233 233 231 231 230 230 229 228 228 229
251 209 196 261 212 132 117 122 138 145 119 84 57 39 40 54 69 64 47 33 22 5 357 156 128 96 105 111 117 136 141 136 141 138 129 129 137 141 141 137 129 125 134 153 157 148 142 147 152 152 169 182 192 211 224 226 222 220 223 225 226 227 230 232 233 236 238 237 236 237 236 234 234 235 235 236 235 234 233 233 231 229 228 226 226 228
267 241 206 250 228 154 126 17 321 197 167 87 42 20 23 44 76 79 54 40 27 356 325 183 67 84 120 128 133 139 143 149 146 138 135 134 134 135 133 131 131 132 137 140 136 129 126 126 124 127 147 178 197 207 214 219 217 213 215 221 223 224 226 227 228 228 228 227 227 230 231 231 232 234 235 238 238 237 236 234 231 228 226 226 226 228
249 242 217 262 250 190 85 339 301 212 166 90 33 8 14 38 65 71 55 41 31 19 29 56 57 111 138 149 148 146 146 143 136 135 137 134 131 132 129 129 131 128 127 130 129 121 117 120 125 130 140 154 169 182 189 198 206 207 206 207 208 211 214 215 215 215 216 215 216 220 222 222 225 228 233 236 237 236 235 232 229 227 225 225 226 228
235 223 201 179 257 268 7 319 260 165 110 93 60 24 12 33 67 74 63 47 33 34 51 64 82 117 144 143 134 138 136 122 120 126 128 127 128 130 128 129 128 123 123 129 128 120 113 119 132 139 141 143 144 152 168 177 182 189 191 192 196 202 207 210 209 211 215 216 216 221 224 223 223 228 235 238 235 231 228 226 225 223 220 220 221 224
265 220 196 172 227 224 351 293 231 125 108 130 82 23 7 10 47 70 67 49 30 33 50 58 72 95 126 126 124 132 131 114 104 102 109 114 118 121 122 121 118 115 119 127 128 122 114 115 129 140 128 122 131 143 158 172 179 181 177 177 180 184 190 199 201 201 204 209 213 218 221 219 216 223 232 233 226 220 219 218 217 215 215 216 217 221
303 246 204 189 205 201 177 123 35 180 173 151 84 19 6 4 342 337 58 53 31 30 48 58 78 100 121 124 127 141 139 118 93 83 95 99 100 108 112 112 111 108 111 122 125 119 117 117 119 120 103 97 100 107 118 142 167 169 162 158 160 161 162 165 168 171 174 176 174 175 185 190 190 201 216 217 215 216 216 216 214 212 214 215 216 223
304 282 236 198 190 207 176 142 156 215 194 111 68 28 4 347 330 317 25 66 31 21 35 46 71 112 134 138 142 151 148 132 104 92 100 98 97 102 105 107 113 113 115 125 126 119 121 125 118 105 99 99 97 94 90 90 108 130 130 128 134 140 140 138 137 137 141 141 136 135 140 145 150 165 182 192 202 206 205 206 206 203 205 205 203 208
191 217 236 213 188 195 199 178 182 207 165 48 35 17 6 358 321 288 232 83 25 9 22 36 57 117 143 153 157 163 168 161 129 113 112 109 107 107 104 102 107 114 117 120 123 123 128 134 133 127 121 115 108 105 103 95 94 104 106 104 107 113 118 121 117 118 126 126 122 124 126 127 134 144 153 166 182 189 187 190 192 192 196 198 195 194
176 183 206 213 189 190 209 195 162 142 70 36 3 353 0 10 250 249 220 90 12 353 7 34 51 91 125 161 164 163 188 212 122 119 117 117 122 124 119 112 106 108 115 117 120 125 128 128 128 124 121 117 112 112 113 104 93 94 99 99 94 91 95 100 104 109 111 102 96 99 104 115 131 132 129 138 151 156 147 146 160 178 186 187 190 190
150 193 225 226 187 184 210 198 135 99 63 13 345 348 355 330 236 245 219 30 346 337 348 12 51 80 103 155 159 123 59 102 138 142 138 138 144 144 140 132 121 115 123 129 125 122 120 122 125 125 122 117 110 106 102 93 83 84 95 104 101 91 84 85 91 93 89 87 88 83 80 87 99 100 99 104 103 95 91 94 102 133 160 165 167 165
122 172 207 229 177 166 203 196 148 117 61 351 330 332 342 299 244 66 52 7 337 336 336 332 15 92 122 138 133 96 101 123 141 149 150 155 157 146 141 148 143 133 136 139 132 125 123 126 130 127 119 112 110 106 94 75 68 73 84 101 102 96 92 89 89 87 83 87 94 88 87 94 89 81 82 85 85 89 98 100 93 107 142 154 154 149
346 281 172 145 39 196 185 178 165 132 50 354 330 320 7 10 46 52 38 41 26 7 328 311 339 49 125 133 129 119 125 138 153 156 154 156 153 140 137 144 146 141 144 147 143 135 131 130 129 122 116 115 117 110 92 65 62 74 86 97 97 96 98 96 94 95 97 103 97 76 86 101 89 68 67 75 78 98 115 119 118 127 144 151 151 150
356 328 69 85 25 285 193 126 86 88 39 9 7 49 52 45 54 27 10 36 36 25 21 32 16 1 93 122 133 133 137 151 168 170 167 164 156 149 146 147 148 146 145 150 150 147 148 153 150 142 137 136 127 108 80 40 41 61 79 92 93 93 94 91 89 92 96 103 106 90 97 112 120 172 258 315 319 335 76 120 130 134 145 150 154 162
33 358 353 35 40 18 41 69 75 84 66 40 47 65 58 47 45 27 18 29 29 22 20 24 40 82 95 119 134 141 149 164 174 175 178 178 171 165 161 158 158 151 144 148 154 156 163 175 178 177 181 181 163 120 48 12 23 42 64 80 86 87 87 87 89 93 95 96 96 95 99 118 142 175 194 229 264 286 304 295 277 209 184 172 172 178
78 336 312 351 98 91 73 81 94 97 91 79 74 74 64 52 46 35 28 30 28 26 22 20 34 63 90 162 151 154 165 175 177 177 182 186 183 178 173 167 165 163 163 168 172 165 162 170 181 192 206 211 227 327 15 22 27 36 51 66 73 76 78 80 81 86 93 97 93 93 94 90 90 145 151 200 245 267 277 278 276 263 235 204 203 206
142 207 265 298 150 159 123 108 111 107 103 105 109 100 81 63 58 51 42 38 33 31 39 50 57 64 68 212 206 199 185 179 177 178 186 194 193 188 184 181 181 183 185 187 186 175 166 171 181 190 194 171 135 64 39 36 36 36 43 53 55 54 57 60 58 50 44 45 48 52 56 35 327 306 307 273 234 233 253 255 256 252 233 211 205 207
144 195 216 173 161 147 106 110 116 120 123 124 119 113 105 83 71 66 55 48 41 36 47 61 67 70 59 284 222 216 204 192 187 187 192 198 200 195 192 195 196 195 192 191 189 184 181 185 188 175 142 103 79 54 34 44 56 55 60 65 50 25 21 30 41 41 36 36 36 31 19 357 333 306 285 271 251 236 238 238 231 232 235 231 223 214
129 176 159 126 178 159 127 139 148 153 153 147 124 103 103 94 81 75 65 57 52 45 45 51 61 78 78 67 189 196 201 200 200 200 198 200 208 209 204 204 205 204 203 200 195 188 186 190 193 182 120 33 24 0 358 44 56 48 49 45 15 359 357 0 9 23 48 72 64 1 19 21 331 291 268 266 262 253 247 241 236 238 243 244 240 236
183 189 135 178 225 216 123 140 157 200 173 135 124 108 97 89 81 78 70 61 54 47 42 38 41 58 78 118 167 187 201 206 212 212 206 206 218 224 219 215 212 210 211 209 204 201 201 202 201 199 190 18 348 327 342 23 37 36 28 353 343 342 339 344 357 3 14 64 325 305 320 317 297 289 273 249 250 255 257 253 245 245 249 251 246 243
214 209 173 241 288 40 78 115 152 247 339 110 121 116 100 88 73 69 67 57 48 41 35 32 30 31 38 90 178 193 203 212 220 220 216 217 225 227 227 226 221 214 213 213 212 212 214 213 213 217 225 270 297 302 332 2 350 338 325 323 331 335 333 339 0 19 14 341 307 310 314 299 297 301 294 271 257 249 251 255 252 251 253 256 255 253
Height
1520 1522 1523 1520 1516 1514 1512 1508 1509 1510 1511 1515 1515 1518 1525 1528 1527 1525 1525 1527 1531 1541 1546 1545 1549 1551 1550 1550 1549 1550 1551 1551 1552 1554 1555 1557 1559 1561 1563 1565 1568 1570 1573 1575 1577 1580 1581 1583 1585 1587 1588 1589 1591 1592 1593 1594 1595 1596 1598 1599 1600 1601 1602 1603 1604 1605 1606 1607 1608 1609 1610 1611 1612 1612 1613 1613 1615 1616 1616 1616 1616 1617 1617 1618 1618 1619
1520 1520 1518 1514 1510 1508 1510 1510 1511 1513 1512 1515 1517 1519 1527 1534 1533 1529 1528 1527 1530 1539 1544 1543 1547 1549 1546 1547 1548 1549 1550 1550 1550 1553 1554 1556 1558 1560 1562 1564 1567 1569 1572 1574 1577 1579 1581 1583 1584 1586 1587 1589 1590 1591 1592 1594 1595 1596 1597 1599 1600 1601 1602 1603 1604 1604 1606 1607 1608 1609 1610 1612 1612 1612 1613 1614 1615 1616 1615 1615 1616 1616 1617 1618 1618 1619
1522 1518 1512 1509 1508 1509 1512 1513 1514 1515 1514 1517 1519 1520 1526 1532 1532 1531 1529 1528 1531 1536 1540 1540 1543 1545 1542 1544 1546 1547 1548 1549 1550 1551 1553 1555 1557 1559 1561 1563 1566 1569 1571 1573 1575 1577 1580 1582 1583 1585 1587 1588 1590 1591 1592 1593 1594 1596 1597 1598 1599 1600 1601 1602 1603 1604 1605 1606 1607 1608 1610 1611 1612 1613 1614 1614 1614 1615 1616 1616 1616 1616 1617 1618 1618 1619
1521 1514 1507 1508 1511 1514 1515 1516 1517 1517 1516 1516 1522 1528 1529 1528 1532 1535 1534 1533 1533 1534 1538 1538 1537 1540 1543 1543 1544 1546 1548 1549 1551 1553 1553 1554 1556 1558 1560 1562 1564 1567 1569 1571 1574 1576 1578 1581 1582 1584 1586 1587 1589 1590 1591 1593 1594 1595 1596 1597 1598 1600 1601 1602 1603 1604 1605 1606 1607 1608 1609 1610 1611 1612 1613 1613 1614 1615 1615 1616 1616 1616 1617 1618 1618 1619
1514 1507 1505 1509 1513 1514 1516 1518 1519 1519 1518 1516 1522 1533 1533 1528 1530 1534 1534 1534 1535 1536 1536 1536 1537 1539 1542 1545 1544 1544 1547 1549 1551 1554 1554 1554 1556 1558 1560 1561 1564 1566 1568 1570 1572 1575 1577 1579 1581 1583 1584 1586 1588 1589 1591 1592 1593 1594 1595 1597 1598 1599 1601 1602 1603 1604 1605 1606 1607 1608 1608 1609 1610 1611 1612 1613 1614 1615 1615 1616 1616 1617 1617 1618 1618 1619
1509 1507 1509 1513 1514 1514 1516 1518 1518 1519 1521 1520 1520 1523 1525 1525 1528 1532 1533 1533 1538 1541 1533 1533 1546 1544 1536 1538 1541 1542 1545 1547 1550 1553 1554 1553 1555 1557 1558 1560 1562 1565 1567 1569 1571 1573 1576 1578 1580 1582 1583 1585 1587 1588 1590 1591 1593 1594 1595 1596 1598 1599 1601 1602 1603 1604 1605 1606 1607 1608 1609 1610 1610 1611 1612 1613 1615 1615 1616 1617 1617 1617 1617 1618 1618 1619
1507 1510 1511 1513 1515 1516 1517 1516 1516 1518 1522 1525 1521 1517 1519 1522 1528 1533 1533 1531 1534 1535 1525 1526 1545 1549 1537 1534 1535 1538 1543 1545 1548 1551 1552 1553 1554 1555 1556 1558 1561 1563 1566 1568 1570 1572 1574 1576 1579 1580 1582 1584 1586 1587 1589 1591 1592 1593 1594 1595 1597 1599 1600 1601 1603 1604 1605 1606 1607 1608 1609 1610 1611 1612 1613 1613 1615 1615 1616 1616 1616 1617 1617 1618 1618 1619
1508 1512 1512 1513 1515 1517 1519 1516 1515 1518 1522 1525 1522 1519 1520 1522 1529 1532 1532 1530 1524 1524 1524 1523 1532 1542 1538 1530 1529 1534 1541 1543 1545 1547 1548 1550 1552 1553 1554 1556 1559 1562 1564 1566 1569 1571 1573 1575 1577 1579 1581 1583 1585 1587 1588 1590 1591 1592 1593 1595 1596 1598 1599 1601 1602 1603 1605 1606 1607 1608 1609 1610 1611 1612 1613 1613 1614 1615 1615 1616 1616 1617 1617 1618 1618 1619
1509 1513 1513 1513 1516 1517 1516 1513 1513 1517 1522 1523 1521 1520 1519 1520 1524 1526 1527 1527 1521 1525 1533 1526 1526 1535 1534 1527 1528 1533 1538 1541 1541 1542 1544 1546 1549 1551 1552 1554 1557 1560 1562 1565 1567 1570 1572 1574 1576 1578 1580 1582 1584 1586 1587 1589 1591 1592 1592 1594 1595 1597 1599 1600 1601 1603 1604 1605 1606 1608 1609 1610 1611 1612 1613 1613 1614 1614 1615 1615 1616 1617 1617 1618 1618 1619
1509 1510 1510 1511 1514 1515 1511 1510 1513 1518 1522 1521 1519 1520 1519 1519 1520 1521 1524 1525 1525 1533 1534 1526 1526 1534 1535 1532 1533 1537 1538 1536 1535 1536 1539 1543 1546 1548 1550 1552 1555 1558 1561 1563 1566 1568 1571 1573 1575 1577 1579 1581 1583 1585 1587 1588 1590 1591 1591 1593 1595 1596 1598 1599 1601 1602 1603 1605 1606 1607 1608 1609 1610 1611 1612 1613 1614 1614 1615 1615 1616 1617 1617 1618 1619 1619
1508 1510 1510 1509 1511 1510 1508 1511 1514 1517 1519 1518 1519 1523 1524 1523 1522 1524 1524 1524 1535 1540 1529 1520 1522 1529 1536 1533 1528 1532 1530 1527 1528 1531 1535 1540 1543 1546 1548 1550 1553 1556 1559 1562 1564 1567 1570 1572 1574 1576 1578 1580 1582 1584 1586 1588 1589 1590 1591 1592 1594 1595 1597 1598 1600 1601 1603 1604 1605 1606 1608 1609 1610 1611 1612 1613 1613 1614 1615 1615 1616 1617 1617 1618 1619 1619
1511 1513 1512 1510 1510 1508 1509 1514 1515 1515 1516 1518 1521 1526 1532 1535 1532 1531 1531 1534 1546 1543 1525 1518 1518 1526 1536 1528 1518 1521 1520 1517 1521 1525 1529 1535 1539 1543 1546 1548 1550 1554 1557 1560 1563 1565 1568 1571 1573 1575 1577 1579 1581 1583 1585 1587 1588 1590 1590 1591 1593 1595 1596 1598 1599 1601 1602 1603 1604 1606 1607 1608 1610 1611 1612 1613 1614 1614 1615 1615 1616 1617 1617 1618 1618 1619
1511 1511 1509 1510 1512 1510 1512 1516 1518 1518 1517 1518 1521 1528 1544 1556 1553 1547 1544 1543 1542 1534 1521 1517 1519 1527 1530 1519 1512 1516 1516 1514 1515 1517 1522 1528 1534 1539 1542 1546 1548 1551 1555 1557 1561 1563 1566 1569 1571 1573 1576 1577 1580 1582 1584 1586 1587 1589 1590 1591 1592 1594 1596 1597 1599 1600 1601 1602 1604 1605 1606 1608 1609 1610 1612 1612 1613 1614 1615 1615 1616 1616 1617 1617 1618 1619
1514 1511 1508 1511 1512 1510 1510 1514 1519 1521 1518 1518 1519 1527 1547 1564 1570 1564 1551 1543 1540 1529 1517 1515 1523 1529 1525 1515 1510 1511 1512 1513 1513 1515 1520 1524 1530 1535 1539 1543 1547 1549 1553 1555 1558 1562 1564 1567 1570 1572 1574 1576 1578 1580 1582 1585 1587 1588 1589 1590 1592 1593 1595 1597 1598 1599 1601 1602 1603 1604 1606 1607 1609 1610 1611 1612 1613 1614 1615 1615 1616 1617 1617 1618 1618 1619
1515 1515 1508 1508 1510 1508 1509 1508 1510 1514 1516 1516 1512 1519 1535 1547 1561 1561 1546 1542 1543 1531 1520 1521 1526 1526 1522 1517 1509 1507 1509 1511 1513 1515 1518 1523 1528 1532 1537 1541 1544 1547 1550 1553 1556 1560 1563 1565 1568 1571 1573 1575 1577 1579 1581 1584 1586 1587 1588 1590 1591 1593 1594 1596 1597 1599 1600 1601 1603 1604 1605 1607 1608 1609 1610 1611 1613 1614 1614 1615 1616 1616 1617 1618 1618 1619
1512 1510 1499 1500 1503 1504 1508 1506 1502 1508 1516 1515 1508 1515 1524 1525 1534 1543 1537 1532 1533 1530 1526 1526 1522 1513 1513 1513 1504 1505 1510 1509 1513 1515 1516 1523 1527 1531 1536 1539 1542 1545 1548 1552 1554 1558 1561 1564 1567 1569 1571 1573 1575 1578 1580 1582 1584 1585 1587 1589 1591 1592 1594 1595 1597 1598 1599 1600 1602 1603 1604 1606 1607 1608 1610 1611 1612 1613 1614 1615 1615 1616 1616 1617 1618 1618
1512 1507 1497 1501 1502 1500 1506 1505 1503 1508 1512 1512 1513 1516 1513 1507 1514 1530 1535 1527 1529 1537 1530 1522 1518 1509 1509 1513 1505 1506 1510 1508 1512 1513 1515 1522 1526 1530 1534 1536 1540 1543 1546 1550 1552 1555 1559 1562 1565 1567 1570 1572 1574 1577 1579 1581 1582 1584 1586 1588 1590 1591 1593 1594 1596 1597 1598 1599 1601 1602 1603 1605 1606 1607 1609 1611 1611 1613 1614 1614 1615 1616 1616 1617 1617 1618
1509 1506 1497 1501 1505 1502 1501 1502 1503 1504 1504 1509 1516 1511 1506 1509 1512 1520 1533 1535 1539 1545 1530 1517 1520 1515 1513 1519 1513 1509 1511 1510 1511 1511 1513 1520 1524 1528 1532 1534 1538 1541 1544 1548 1551 1554 1557 1560 1563 1566 1568 1571 1573 1576 1578 1579 1581 1583 1585 1587 1588 1590 1592 1593 1595 1596 1597 1598 1600 1601 1602 1603 1605 1606 1608 1610 1611 1612 1613 1614 1614 1615 1616 1616 1617 1618
1508 1508 1499 1497 1502 1501 1499 1503 1506 1504 1501 1505 1508 1502 1504 1521 1524 1521 1532 1538 1540 1544 1532 1520 1520 1514 1510 1514 1514 1512 1512 1511 1511 1511 1513 1518 1522 1526 1530 1534 1537 1540 1543 1547 1549 1553 1555 1558 1561 1564 1567 1569 1571 1574 1576 1578 1580 1581 1583 1585 1587 1589 1590 1592 1594 1595 1596 1597 1599 1600 1601 1602 1604 1605 1607 1609 1610 1611 1612 1613 1614 1615 1615 1616 1617 1617
1506 1510 1504 1495 1495 1498 1500 1504 1506 1506 1505 1504 1504 1500 1501 1512 1515 1514 1520 1522 1527 1537 1534 1525 1521 1512 1505 1505 1509 1512 1510 1509 1511 1511 1512 1516 1521 1525 1529 1533 1536 1539 1542 1545 1548 1551 1553 1556 1560 1562 1565 1567 1569 1573 1574 1576 1578 1580 1582 1583 1585 1587 1589 1591 1593 1594 1595 1596 1597 1599 1600 1601 1602 1603 1605 1606 1608 1609 1611 1612 1613 1614 1615 1615 1616 1616
1504 1508 1507 1498 1496 1501 1503 1502 1500 1501 1505 1508 1510 1508 1506 1506 1504 1507 1510 1506 1513 1527 1530 1528 1523 1512 1507 1506 1507 1510 1509 1507 1509 1510 1512 1515 1519 1524 1528 1531 1535 1537 1541 1544 1547 1550 1552 1555 1558 1561 1564 1565 1568 1571 1572 1574 1576 1578 1580 1582 1584 1586 1587 1589 1591 1592 1593 1595 1596 1597 1598 1600 1601 1602 1603 1605 1606 1608 1609 1610 1611 1613 1614 1614 1615 1615
1507 1507 1506 1501 1500 1502 1499 1493 1491 1493 1496 1502 1507 1505 1505 1506 1506 1515 1519 1507 1505 1516 1519 1522 1522 1515 1512 1511 1508 1507 1508 1507 1508 1510 1513 1515 1519 1524 1527 1530 1534 1536 1540 1543 1545 1548 1551 1554 1557 1560 1562 1564 1567 1569 1570 1572 1574 1576 1578 1580 1582 1584 1586 1588 1589 1590 1592 1593 1594 1596 1597 1598 1600 1601 1602 1603 1605 1606 1607 1609 1610 1611 1612 1613 1613 1613
1510 1508 1507 1502 1497 1495 1492 1489 1490 1491 1489 1493 1499 1497 1497 1501 1503 1514 1521 1510 1507 1511 1508 1513 1520 1517 1514 1512 1509 1509 1508 1508 1509 1511 1513 1516 1519 1523 1526 1530 1533 1536 1539 1542 1545 1548 1551 1553 1556 1559 1561 1564 1566 1567 1569 1571 1573 1575 1577 1578 1581 1582 1584 1586 1587 1589 1590 1592 1593 1594 1595 1597 1598 1599 1600 1602 1603 1605 1606 1607 1608 1609 1610 1611 1612 1612
1511 1510 1511 1507 1497 1492 1492 1491 1491 1492 1491 1494 1495 1491 1492 1496 1495 1500 1502 1499 1507 1511 1509 1517 1523 1517 1514 1513 1512 1512 1511 1511 1511 1512 1514 1518 1520 1523 1526 1530 1533 1535 1538 1541 1544 1547 1550 1552 1555 1557 1560 1563 1565 1566 1568 1570 1571 1573 1575 1577 1579 1581 1582 1584 1585 1587 1589 1590 1592 1593 1594 1595 1596 1598 1599 1600 1602 1603 1605 1606 1607 1608 1608 1609 1611 1611
1512 1511 1512 1513 1510 1506 1504 1503 1500 1498 1497 1496 1493 1491 1493 1493 1492 1495 1493 1496 1508 1508 1507 1518 1520 1512 1513 1514 1513 1515 1515 1515 1515 1515 1517 1520 1522 1525 1527 1530 1534 1536 1538 1541 1543 1546 1548 1551 1554 1556 1559 1562 1564 1566 1567 1569 1570 1572 1574 1576 1577 1579 1580 1581 1583 1585 1586 1588 1590 1591 1592 1593 1595 1596 1597 1598 1599 1601 1602 1604 1605 1606 1607 1608 1609 1610
1512 1511 1512 1515 1517 1516 1514 1511 1505 1500 1497 1495 1494 1495 1497 1496 1496 1498 1499 1506 1514 1507 1502 1511 1513 1511 1515 1515 1514 1517 1517 1518 1518 1519 1522 1524 1526 1528 1529 1531 1535 1537 1539 1541 1544 1546 1547 1550 1553 1555 1558 1560 1563 1565 1566 1568 1569 1571 1573 1576 1577 1578 1578 1579 1581 1582 1584 1586 1587 1589 1590 1591 1592 1593 1595 1596 1597 1598 1599 1601 1603 1604 1605 1606 1607 1608
1510 1510 1510 1511 1511 1510 1512 1509 1500 1494 1495 1498 1499 1500 1499 1499 1498 1499 1502 1506 1507 1506 1507 1506 1505 1511 1516 1515 1516 1518 1518 1520 1521 1521 1524 1527 1528 1530 1531 1533 1535 1537 1540 1542 1544 1546 1547 1550 1552 1554 1557 1560 1562 1563 1564 1566 1567 1569 1571 1574 1575 1576 1577 1577 1579 1580 1582 1584 1585 1586 1588 1589 1590 1591 1592 1593 1594 1596 1597 1598 1599 1601 1602 1603 1604 1605
1511 1513 1510 1507 1506 1505 1506 1504 1497 1495 1498 1499 1501 1501 1500 1501 1501 1502 1504 1501 1498 1507 1513 1505 1499 1507 1511 1511 1515 1517 1518 1522 1523 1523 1526 1529 1531 1532 1533 1535 1537 1538 1540 1542 1543 1545 1547 1550 1552 1553 1556 1558 1560 1562 1562 1563 1565 1567 1568 1571 1573 1574 1575 1575 1576 1577 1579 1581 1582 1583 1585 1586 1587 1588 1589 1590 1592 1593 1594 1595 1596 1598 1599 1600 1601 1603
1514 1517 1510 1505 1506 1504 1502 1501 1498 1497 1500 1500 1501 1502 1501 1501 1503 1503 1503 1502 1503 1511 1514 1505 1501 1506 1507 1508 1513 1516 1519 1523 1525 1526 1528 1530 1532 1534 1535 1537 1539 1540 1541 1541 1543 1546 1548 1549 1550 1552 1554 1556 1558 1560 1560 1561 1563 1564 1566 1568 1571 1572 1572 1573 1573 1574 1575 1577 1579 1580 1582 1583 1585 1586 1587 1588 1589 1590 1592 1593 1594 1595 1596 1597 1599 1601
1517 1518 1510 1505 1506 1505 1503 1503 1500 1499 1502 1503 1503 1503 1502 1502 1504 1504 1505 1505 1506 1509 1508 1505 1507 1510 1508 1509 1513 1517 1521 1523 1525 1528 1529 1530 1533 1534 1535 1538 1539 1540 1541 1541 1543 1546 1548 1549 1550 1552 1553 1555 1556 1558 1559 1560 1562 1563 1565 1567 1568 1570 1570 1570 1571 1572 1573 1574 1576 1578 1579 1581 1582 1583 1584 1585 1586 1587 1588 1590 1591 1592 1593 1594 1596 1598
1517 1518 1514 1509 1508 1507 1505 1502 1500 1500 1503 1506 1508 1506 1504 1505 1506 1507 1508 1508 1507 1509 1508 1507 1511 1515 1512 1512 1516 1521 1523 1523 1526 1529 1530 1532 1533 1534 1536 1538 1539 1542 1543 1543 1544 1546 1547 1549 1550 1551 1553 1554 1555 1556 1557 1559 1561 1562 1564 1564 1565 1566 1567 1567 1568 1569 1570 1571 1573 1575 1576 1577 1578 1580 1581 1582 1582 1584 1585 1587 1588 1589 1590 1592 1593 1595
1513 1514 1515 1512 1512 1511 1506 1503 1502 1500 1500 1506 1512 1512 1510 1509 1510 1511 1512 1512 1513 1514 1511 1509 1513 1516 1515 1517 1522 1524 1525 1526 1528 1529 1531 1533 1534 1535 1537 1538 1541 1543 1545 1546 1546 1546 1548 1549 1550 1552 1553 1553 1554 1554 1555 1557 1559 1560 1561 1561 1562 1563 1564 1565 1566 1567 1568 1569 1571 1572 1573 1574 1575 1576 1578 1578 1579 1581 1582 1584 1585 1586 1587 1589 1591 1592
1513 1514 1516 1517 1517 1512 1506 1505 1504 1501 1506 1515 1520 1518 1516 1512 1511 1513 1514 1514 1515 1514 1513 1515 1518 1516 1517 1521 1525 1526 1527 1528 1529 1530 1532 1534 1535 1536 1538 1539 1541 1544 1545 1547 1547 1547 1549 1550 1550 1552 1552 1552 1553 1554 1555 1556 1556 1557 1558 1559 1560 1561 1563 1564 1564 1565 1567 1568 1569 1569 1570 1571 1572 1574 1575 1576 1577 1578 1580 1581 1582 1583 1585 1586 1588 1590
1514 1515 1517 1519 1519 1514 1509 1507 1505 1508 1520 1528 1523 1518 1518 1516 1514 1517 1518 1518 1517 1514 1513 1517 1517 1516 1519 1522 1524 1527 1528 1528 1530 1532 1533 1535 1536 1537 1539 1540 1542 1544 1545 1547 1547 1548 1548 1549 1550 1551 1551 1552 1553 1554 1555 1555 1556 1556 1557 1558 1559 1560 1561 1562 1562 1563 1564 1565 1565 1566 1567 1568 1570 1571 1572 1573 1574 1576 1577 1579 1580 1581 1582 1584 1586 1587
1514 1513 1514 1516 1518 1518 1515 1513 1518 1527 1530 1526 1521 1519 1519 1518 1516 1517 1520 1521 1520 1516 1515 1516 1517 1518 1521 1523 1525 1529 1529 1530 1533 1535 1535 1536 1538 1539 1540 1542 1543 1544 1546 1548 1548 1548 1549 1549 1550 1550 1551 1552 1553 1554 1555 1555 1555 1556 1557 1557 1558 1558 1559 1560 1561 1562 1562 1562 1563 1563 1564 1566 1567 1569 1569 1570 1572 1574 1575 1576 1577 1578 1580 1582 1584 1585
1514 1512 1512 1515 1518 1522 1524 1525 1531 1535 1528 1521 1522 1523 1521 1520 1519 1519 1522 1525 1523 1520 1519 1521 1522 1523 1523 1525 1528 1532 1532 1533 1536 1537 1538 1539 1540 1541 1542 1543 1544 1546 1548 1549 1550 1550 1551 1551 1551 1551 1552 1553 1554 1555 1555 1555 1555 1555 1555 1555 1556 1557 1558 1559 1560 1561 1561 1561 1561 1562 1563 1564 1565 1567 1568 1569 1570 1572 1573 1574 1575 1576 1578 1580 1582 1583
1515 1513 1512 1516 1520 1522 1527 1533 1533 1532 1530 1528 1528 1527 1526 1526 1525 1523 1526 1530 1527 1524 1524 1525 1526 1526 1526 1528 1531 1533 1534 1536 1538 1540 1541 1542 1542 1543 1544 1545 1547 1548 1549 1551 1552 1552 1553 1553 1552 1553 1554 1555 1555 1556 1556 1556 1556 1556 1556 1555 1555 1556 1558 1559 1560 1560 1561 1561 1562 1562 1563 1564 1565 1566 1567 1568 1569 1569 1570 1571 1572 1574 1577 1579 1580 1581
1518 1516 1513 1517 1521 1520 1525 1536 1540 1539 1538 1534 1529 1528 1529 1528 1527 1525 1527 1531 1531 1528 1527 1527 1527 1528 1528 1529 1531 1534 1534 1536 1540 1542 1543 1543 1544 1545 1546 1548 1549 1550 1551 1552 1553 1554 1555 1554 1554 1555 1556 1557 1557 1558 1558 1558 1558 1558 1558 1557 1557 1558 1559 1559 1559 1561 1561 1562 1562 1563 1564 1565 1566 1567 1567 1568 1568 1568 1569 1570 1571 1573 1576 1577 1578 1579
1517 1517 1514 1516 1520 1521 1524 1533 1539 1540 1538 1533 1529 1529 1528 1529 1529 1527 1527 1533 1535 1532 1530 1529 1528 1529 1529 1530 1532 1534 1535 1537 1540 1542 1543 1544 1545 1547 1548 1549 1550 1551 1553 1554 1555 1556 1557 1556 1557 1557 1558 1558 1559 1559 1560 1560 1561 1561 1560 1560 1560 1560 1560 1560 1561 1562 1563 1563 1563 1564 1565 1566 1567 1568 1568 1568 1569 1569 1570 1571 1572 1573 1574 1575 1576 1578
1516 1515 1514 1515 1518 1521 1522 1525 1529 1533 1534 1532 1530 1528 1528 1529 1529 1529 1533 1538 1537 1534 1533 1532 1530 1530 1530 1531 1533 1536 1539 1540 1539 1541 1545 1545 1546 1547 1548 1550 1552 1553 1554 1555 1556 1558 1558 1558 1559 1559 1559 1560 1560 1561 1562 1562 1562 1562 1562 1562 1563 1562 1561 1562 1562 1563 1563 1564 1564 1565 1566 1567 1568 1569 1569 1569 1569 1570 1571 1572 1572 1573 1573 1575 1576 1578
1519 1516 1514 1513 1514 1517 1520 1522 1527 1532 1533 1532 1530 1529 1529 1529 1529 1533 1540 1541 1537 1536 1536 1534 1532 1532 1532 1533 1535 1537 1541 1542 1541 1543 1546 1546 1547 1548 1548 1549 1552 1553 1554 1556 1557 1558 1560 1561 1561 1561 1561 1561 1562 1562 1563 1564 1564 1563 1563 1563 1564 1563 1562 1563 1563 1563 1564 1565 1566 1566 1566 1568 1569 1569 1569 1569 1570 1571 1571 1571 1572 1573 1574 1575 1576 1577
1522 1520 1517 1515 1514 1516 1518 1520 1527 1534 1535 1533 1532 1531 1530 1530 1533 1537 1540 1539 1538 1538 1537 1536 1535 1534 1534 1535 1537 1539 1540 1542 1544 1545 1546 1547 1548 1548 1547 1549 1551 1553 1554 1556 1556 1558 1561 1562 1563 1563 1562 1563 1563 1564 1564 1564 1564 1564 1564 1564 1564 1563 1564 1564 1564 1564 1565 1566 1568 1568 1568 1569 1569 1568 1569 1570 1571 1572 1572 1572 1573 1574 1575 1576 1577 1577
1525 1523 1520 1519 1520 1519 1518 1523 1533 1538 1537 1533 1531 1530 1530 1533 1537 1539 1538 1538 1538 1538 1537 1537 1537 1536 1536 1537 1538 1540 1541 1542 1544 1546 1547 1549 1550 1549 1549 1551 1552 1553 1555 1557 1557 1558 1560 1563 1565 1565 1564 1564 1564 1564 1564 1565 1565 1564 1564 1564 1564 1564 1565 1565 1565 1565 1566 1567 1568 1568 1569 1569 1569 1569 1570 1571 1572 1573 1573 1573 1574 1575 1576 1577 1578 1578
1527 1526 1522 1522 1524 1523 1522 1529 1536 1538 1536 1534 1533 1533 1535 1537 1539 1539 1538 1538 1539 1538 1538 1538 1538 1538 1538 1538 1539 1541 1542 1543 1545 1546 1547 1549 1551 1551 1552 1553 1554 1555 1557 1558 1558 1558 1560 1564 1565 1565 1565 1565 1564 1565 1565 1565 1565 1565 1565 1565 1565 1565 1566 1566 1566 1566 1567 1567 1568 1568 1569 1569 1570 1570 1570 1571 1572 1573 1573 1574 1574 1575 1576 1577 1578 1578
1530 1529 1528 1527 1527 1528 1528 1532 1536 1537 1537 1538 1537 1537 1539 1540 1540 1540 1540 1539 1539 1539 1538 1538 1538 1539 1539 1539 1541 1542 1542 1544 1546 1547 1548 1549 1550 1552 1553 1554 1555 1557 1557 1559 1560 1560 1561 1564 1565 1565 1565 1565 1565 1565 1565 1565 1565 1566 1566 1566 1566 1566 1566 1567 1567 1567 1568 1568 1568 1569 1569 1570 1570 1570 1570 1571 1572 1572 1572 1573 1573 1574 1574 1576 1577 1577
1531 1531 1530 1529 1529 1532 1534 1535 1536 1537 1539 1540 1540 1540 1541 1541 1541 1541 1541 1540 1540 1540 1539 1539 1539 1540 1540 1541 1541 1542 1543 1544 1546 1547 1548 1550 1550 1551 1553 1554 1556 1557 1557 1558 1559 1561 1562 1564 1565 1566 1566 1565 1565 1566 1566 1566 1566 1566 1566 1566 1566 1567 1567 1567 1567 1568 1568 1569 1569 1569 1570 1570 1570 1570 1570 1570 1571 1571 1572 1573 1573 1573 1574 1575 1576 1577
1531 1531 1530 1529 1530 1533 1536 1536 1537 1538 1539 1540 1541 1541 1542 1542 1542 1542 1542 1542 1541 1541 1540 1540 1540 1541 1541 1541 1542 1543 1544 1545 1546 1547 1548 1550 1551 1552 1553 1554 1555 1557 1557 1558 1559 1561 1562 1563 1564 1565 1565 1566 1566 1566 1566 1566 1566 1566 1566 1566 1566 1567 1567 1567 1568 1568 1568 1568 1569 1569 1569 1569 1569 1569 1569 1570 1571 1571 1572 1573 1573 1574 1574 1575 1575 1576
1530 1531 1529 1529 1529 1532 1534 1536 1538 1539 1541 1541 1541 1542 1543 1543 1543 1543 1543 1543 1543 1542 1542 1541 1542 1542 1543 1543 1543 1544 1544 1545 1546 1547 1548 1550 1551 1552 1553 1554 1555 1556 1557 1558 1559 1561 1562 1562 1563 1564 1565 1565 1566 1566 1566 1566 1566 1566 1566 1567 1567 1567 1566 1567 1568 1568 1568 1569 1569 1569 1569 1569 1569 1569 1569 1570 1570 1571 1571 1572 1573 1573 1573 1573 1573 1574
1529 1530 1529 1529 1530 1531 1533 1535 1537 1538 1539 1540 1541 1542 1542 1543 1543 1544 1544 1544 1544 1543 1543 1543 1543 1543 1544 1544 1544 1545 1545 1546 1547 1547 1548 1550 1551 1552 1553 1554 1555 1556 1557 1558 1559 1560 1561 1562 1562 1563 1564 1565 1565 1565 1566 1566 1566 1566 1566 1567 1567 1567 1567 1567 1567 1568 1568 1569 1569 1569 1569 1569 1569 1569 1569 1569 1570 1570 1570 1571 1571 1571 1571 1571 1572 1572
1529 1528 1528 1529 1529 1529 1529 1532 1535 1535 1535 1537 1540 1541 1542 1542 1543 1543 1544 1544 1544 1544 1544 1544 1544 1544 1544 1545 1545 1546 1546 1547 1547 1548 1549 1550 1551 1551 1552 1553 1554 1555 1556 1557 1558 1559 1560 1561 1562 1562 1563 1564 1565 1565 1565 1565 1565 1566 1566 1566 1566 1567 1567 1567 1567 1567 1568 1568 1569 1569 1569 1569 1568 1568 1568 1569 1569 1569 1569 1569 1569 1569 1569 1570 1570 1571
1527 1526 1527 1528 1528 1528 1530 1532 1535 1535 1535 1537 1540 1541 1541 1542 1543 1543 1543 1544 1544 1544 1544 1545 1545 1545 1545 1545 1545 1546 1547 1547 1548 1548 1549 1550 1551 1551 1551 1552 1553 1555 1556 1557 1558 1559 1560 1561 1562 1562 1563 1563 1564 1565 1565 1565 1565 1565 1566 1566 1566 1566 1566 1566 1567 1567 1567 1567 1567 1567 1567 1568 1567 1567 1567 1567 1567 1568 1568 1568 1568 1568 1568 1568 1568 1569